Volver al catálogo

STARLINK-33800

ActivoComunicacionesVLEO
NORAD 63576·PAYLOAD·🇺🇸 United States

Lanzado Apr 14, 2025 desde Cape Canaveral Space Force Station

Loading…

Próximos Pases (próximas 24 horas)

TLE

ActualizadoSource: CelesTrak SupGP

Época: Sep 14, 2026, 21:00 UTC

1 63576C 25076H   26257.87548611 -.00019411  00000+0 -70311-3 0  2578
2 63576  43.0030 333.0869 0001319 268.8899 179.8534 15.27585484    12

Sigue STARLINK-33800 en tiempo real con AllMySat

Download on the App Store